User: anonymous   Login
Location: Vancouver
(49.2500°N, 123.1330°W)
Time: 17:16:32
(UTC-07:00)
Language:

Oscar 11 - Orbit

View from above orbital plane
View from above orbital plane
View from above satellite
View from above satellite

Ground track
Ground track

The orbit data is extracted from the following two-line orbital elements,

1 14781U 84021B   15213.12212719  .00000299  00000-0  43739-4 0  9993
2 14781 097.7981 269.0902 0007134 287.2005 072.8428 14.82463836688683
Epoch (UTC): 01 August 2015 02:55:51
Eccentricity: 0.0007134
inclination: 97.7981°
perigee height: 616 km
apogee height: 626 km
right ascension of ascending node: 269.0902°
argument of perigee: 287.2005°
revolutions per day: 14.82463836
mean anomaly at epoch: 72.8428°
orbit number at epoch: 68868

The dashed part of the orbit path shows where the satellite is in the earth's shadow,  

DLR